[[{"header":{"parameterUnit":"m.s-1","parameterCategory":1,"la1":30.2991,"la2":30.254,"lo1":-89.0895,"lo2":-89.0444,"dy":0.0017,"dx":0.0017,"nx":28,"ny":28,"refTime":"2024-04-25T21:00:00:Z","depth":0,"parameterNumber":2,"parameterNumberName":"U-component_of_WINDS"},"data":[0,0,0,0,0,0,0,0,0,0,0,0,0,0,0,0,0,0,0,0,0,0,0,0,0,0,0,0,0,0,0,0,0,0,0,0,0,0,0,0,0,0,0,0,0,0,0,0,0,0,0,0,0,0,0,0,0,0,-5.6213,-5.6214,0,-5.634,-5.6341,-5.6343,-5.6317,-5.6314,-5.6312,-5.631,-5.6436,-5.6442,-5.6447,0,0,0,0,0,0,0,0,0,0,0,0,0,-5.5945,-5.595,-5.6213,-5.6214,-5.6216,-5.6339,-5.6341,-5.6343,-5.6317,-5.6314,-5.6312,-5.6309,-5.6435,-5.6441,-5.6448,0,0,0,0,0,0,0,0,0,0,0,0,0,-5.6066,-5.5952,-5.6212,-5.6218,-5.622,-5.6339,-5.6341,-5.6343,-5.6318,-5.6314,-5.6311,-5.6308,-5.6432,-5.644,-5.6449,-5.6569,0,0,-5.6474,-5.6477,0,0,0,0,0,0,0,0,-5.6059,-5.6076,-5.6215,-5.6218,-5.622,-5.6309,-5.6293,-5.6419,-5.6319,-5.628,-5.631,-5.6306,-5.6397,-5.6408,-5.6439,-5.6575,-5.6581,-5.6475,-5.648,-5.6483,-5.6486,0,0,0,0,0,0,0,-5.6051,-5.607,-5.6263,-5.6217,-5.622,-5.6213,-5.6227,-5.6317,-5.6356,-5.6283,-5.6282,-5.6297,-5.6397,-5.6431,-5.6442,-5.6582,-5.6474,-5.6482,-5.6487,-5.649,-5.6824,-5.6828,0,0,0,0,0,0,-5.6041,-5.6063,-5.6259,-5.6267,-5.6129,-5.6221,-5.6236,-5.6284,-5.6355,-5.6363,-5.63,-5.6296,-5.6418,-5.6432,-5.6446,-5.6591,-5.6483,-5.6491,-5.6496,-5.682,-5.6825,-5.6829,0,0,0,0,0,0,-5.6035,-5.6058,-5.6254,-5.6165,-5.6189,-5.6229,-5.6283,-5.6288,-5.6322,-5.6368,-5.6375,-5.6328,-5.6416,-5.6434,-5.6539,-5.6595,-5.6495,-5.6502,-5.6816,-5.6822,-5.6827,-5.6882,0,0,0,0,0,0,-5.6027,-5.6057,-5.6103,-5.6166,-5.6194,-5.6345,-5.6287,-5.6293,-5.6337,-5.6332,-5.6396,-5.6403,-5.6415,-5.6527,-5.6547,-5.6605,-5.6509,-5.6811,-5.6818,-5.6825,-5.6876,-5.6889,-5.6901,0,0,0,0,0,-5.6018,-5.6113,-5.6105,-5.6129,-5.6253,-5.6348,-5.6364,-5.6377,-5.6341,-5.6388,-5.6418,-5.6401,-5.6587,-5.6538,-5.6561,-5.6621,-5.6807,-5.6816,-5.6825,-5.687,-5.6887,-5.6901,0,0,0,0,0,0,-5.6053,-5.6121,-5.6114,-5.6232,-5.6285,-5.6344,-5.6403,-5.6395,-5.6458,-5.6451,-5.6464,-5.6478,-5.6585,-5.6614,-5.6558,-5.6742,-5.6692,-5.6705,-5.6718,-5.6734,-5.6747,-5.6736,-5.6516,0,0,0,0,0,-5.6076,-5.6148,-5.6203,-5.6302,-5.6329,-5.6362,-5.6404,-5.641,-5.6465,-5.6487,-5.6524,-5.6577,-5.6647,-5.6693,-5.676,-5.6881,-5.6894,-5.6934,-5.6947,-5.6957,-5.6968,-5.7033,-5.7051,-5.6858,-5.6858,-5.6858,0,0,-5.6121,-5.6167,-5.6211,-5.631,-5.6352,-5.6426,-5.6381,-5.6461,-5.6516,-5.6498,-5.6599,-5.6629,-5.6689,-5.6803,-5.6854,-5.683,-5.7025,-5.6969,-5.6976,-5.6981,-5.7044,-5.7062,-5.7079,-5.6864,-5.6863,-5.6862,0,0,-5.624,-5.6283,-5.637,-5.6414,-5.6478,-5.65,-5.6521,-5.6582,-5.6602,-5.6704,-5.6692,-5.6758,-5.6879,-5.6922,-5.696,-5.7099,-5.7085,-5.7121,-5.7186,-5.725,-5.7265,-5.7278,-5.7326,-5.7343,-5.7132,-5.7133,-5.7133,0,-5.6287,-5.6399,-5.6415,-5.6497,-5.654,-5.6531,-5.6618,-5.666,-5.6742,-5.6772,-5.6745,-5.6897,-5.6937,-5.706,-5.7094,-5.7126,-5.7149,-5.7112,-5.7262,-5.7275,-5.7288,-5.7334,-5.7352,-5.7136,-5.7136,-5.7135,-5.7135,0,-5.6454,-5.6532,-5.6594,-5.6676,-5.6727,-5.6811,-5.6839,-5.6889,-5.6891,-5.6916,-5.702,-5.7068,-5.7145,-5.7176,-5.7178,-5.7299,-5.7282,-5.7259,-5.7207,-5.731,-5.7353,-5.7371,-5.7142,-5.714,-5.7139,-5.7138,0,0,-5.6595,-5.6687,-5.6709,-5.6746,-5.6818,-5.6878,-5.6963,-5.7039,-5.7081,-5.714,-5.7209,-5.7314,-5.7293,-5.7336,-5.7344,-5.74,-5.7506,-5.737,-5.7371,-5.7391,-5.764,-5.7655,-5.7675,-5.7499,-5.7502,-5.7505,-5.7634,0,-5.6719,-5.6868,-5.6886,-5.7018,-5.709,-5.7083,-5.7157,-5.7209,-5.7235,-5.7299,-5.7327,-5.74,-5.7368,-5.7394,-5.745,-5.7481,-5.7555,-5.7472,-5.7561,-5.7564,-5.7543,-5.7697,-5.7713,-5.7832,-5.7651,-5.7654,-5.7656,0,-5.6883,-5.6947,-5.7087,-5.715,-5.7181,-5.7246,-5.7318,-5.738,-5.7439,-5.7454,-5.7504,-5.7505,-5.7592,-5.7541,-5.7659,-5.7602,-5.7641,-5.7662,-5.7667,-5.7672,-5.7613,-5.7704,-5.7871,-5.7888,-5.7683,-5.7681,-5.7679,0,-5.6969,-5.7091,-5.719,-5.7222,-5.7299,-5.7345,-5.7379,-5.7435,-5.748,-5.7543,-5.7572,-5.7645,-5.7684,-5.774,-5.776,-5.7722,-5.7877,-5.7828,-5.789,-5.789,-5.792,-5.7917,-5.8092,-5.795,-5.795,-5.795,-5.7949,0,-5.7103,-5.7188,-5.723,-5.729,-5.7386,-5.7406,-5.7499,-5.7531,-5.7582,-5.7648,-5.7648,-5.7709,-5.7735,-5.7801,-5.7818,-5.7913,-5.7931,-5.7944,-5.7947,-5.7942,-5.794,-5.7964,-5.7955,-5.7954,-5.7953,-5.7952,-5.7952,0,-5.7213,-5.7245,-5.7352,-5.7417,-5.7436,-5.7503,-5.7558,-5.7616,-5.7643,-5.7727,-5.7747,-5.7789,-5.7867,-5.7894,-5.7988,-5.8,-5.8109,-5.8107,-5.8089,-5.8089,-5.8148,-5.8141,-5.8342,-5.8369,-5.8213,-5.8214,-5.8215,0,-5.7295,-5.7361,-5.7433,-5.7478,-5.7514,-5.7587,-5.7634,-5.7657,-5.7706,-5.7779,-5.7828,-5.7907,-5.7969,-5.8094,-5.8132,-5.8204,-5.8201,-5.8267,-5.8212,-5.8205,-5.8199,-5.8194,-5.8199,-5.8276,-5.8277,-5.8279,-5.828,0,-5.7437,-5.745,-5.7518,-5.7592,-5.7648,-5.7707,-5.7764,-5.7801,-5.7833,-5.7888,-5.7968,-5.8018,-5.8115,-5.8192,-5.8266,-5.83,-5.8295,-5.8298,-5.8315,-5.8309,-5.8295,-5.8301,-5.8114,-5.8292,-5.8291,-5.829,-5.8289,-5.8289,-5.7534,-5.7591,-5.7652,-5.7727,-5.7774,-5.7828,-5.7886,-5.7921,-5.7989,-5.807,-5.8081,-5.8167,-5.8225,-5.8325,-5.8363,-5.843,-5.8411,-5.8438,-5.8444,-5.8449,-5.8452,-5.8288,-5.8444,-5.8444,-5.8443,-5.8443,-5.8443,0,-5.7673,-5.7712,-5.7782,-5.7863,-5.7923,-5.7916,-5.7979,-5.8029,-5.8105,-5.8161,-5.8224,-5.8316,-5.8391,-5.8437,-5.8512,-5.8557,-5.8556,-5.8575,-5.857,-5.8578,-5.8465,-5.8441,-5.8575,-5.8575,-5.8575,-5.8574,-5.8574,-5.8574,-5.7752,-5.7849,-5.7869,-5.7989,-5.8028,-5.8113,-5.815,-5.8199,-5.8244,-5.8348,-5.841,-5.844,-5.8492,-5.8571,-5.864,-5.8651,-5.8677,-5.8698,-5.8707,-5.86,-5.8586,-5.8573,-5.855,-5.8704,-5.8704,-5.8814,-5.8815,-5.8815]},{"header":{"parameterUnit":"m.s-1","parameterCategory":1,"la1":30.2991,"la2":30.254,"lo1":-89.0895,"lo2":-89.0444,"dy":0.0017,"dx":0.0017,"nx":28,"ny":28,"refTime":"2024-04-25T21:00:00:Z","depth":0,"parameterNumber":3,"parameterNumberName":"V-component_of_WINDS"},"data":[0,0,0,0,0,0,0,0,0,0,0,0,0,0,0,0,0,0,0,0,0,0,0,0,0,0,0,0,0,0,0,0,0,0,0,0,0,0,0,0,0,0,0,0,0,0,0,0,0,0,0,0,0,0,0,0,0,0,3.168,3.1681,0,3.1686,3.1686,3.1686,3.1649,3.1648,3.1647,3.1646,3.1651,3.1652,3.1653,0,0,0,0,0,0,0,0,0,0,0,0,0,3.1638,3.1639,3.168,3.1681,3.1681,3.1686,3.1686,3.1686,3.1649,3.1648,3.1646,3.1645,3.165,3.1652,3.1653,0,0,0,0,0,0,0,0,0,0,0,0,0,3.1651,3.1639,3.168,3.1663,3.1661,3.1686,3.1686,3.1686,3.1649,3.1648,3.1646,3.1645,3.165,3.1652,3.1653,3.1695,0,0,3.1658,3.1659,0,0,0,0,0,0,0,0,3.1651,3.1653,3.1665,3.1664,3.1662,3.1665,3.1673,3.1689,3.165,3.1654,3.1646,3.1644,3.1657,3.1658,3.1662,3.1696,3.1696,3.1659,3.166,3.166,3.1661,0,0,0,0,0,0,0,3.165,3.1652,3.1683,3.1665,3.1664,3.1655,3.1655,3.1676,3.1664,3.1653,3.1651,3.1652,3.1656,3.1661,3.1662,3.1696,3.1659,3.166,3.1661,3.1662,3.1766,3.1768,0,0,0,0,0,0,3.1651,3.1652,3.1683,3.1683,3.1652,3.1657,3.1657,3.1666,3.1664,3.1662,3.1653,3.165,3.1659,3.166,3.1662,3.1712,3.166,3.1662,3.1663,3.1764,3.1766,3.1768,0,0,0,0,0,0,3.165,3.1654,3.1682,3.1667,3.167,3.1659,3.167,3.1667,3.1672,3.1664,3.1661,3.1661,3.1658,3.166,3.1688,3.1712,3.1663,3.1664,3.1762,3.1765,3.1767,3.1812,0,0,0,0,0,0,3.1649,3.1654,3.167,3.1667,3.1671,3.1708,3.1671,3.1668,3.1675,3.1671,3.167,3.1668,3.1657,3.1686,3.169,3.1713,3.1665,3.176,3.1763,3.1766,3.1808,3.1816,3.1822,0,0,0,0,0,3.1648,3.1681,3.1671,3.1674,3.169,3.1709,3.1711,3.1697,3.1677,3.1693,3.1688,3.1668,3.1709,3.1689,3.1693,3.1717,3.1758,3.1762,3.1766,3.1805,3.1814,3.1822,0,0,0,0,0,0,3.1686,3.1681,3.1669,3.1702,3.1707,3.1703,3.1722,3.1707,3.1716,3.1712,3.1694,3.1694,3.1726,3.1724,3.1702,3.1759,3.173,3.1735,3.1758,3.1767,3.1774,3.1773,3.1667,0,0,0,0,0,3.1698,3.1714,3.1709,3.1739,3.1742,3.1732,3.174,3.1729,3.1733,3.1734,3.1731,3.1735,3.1749,3.1758,3.177,3.1809,3.1808,3.1828,3.1835,3.184,3.1845,3.1866,3.1875,3.1781,3.1781,3.1781,0,0,3.1724,3.1723,3.1734,3.1747,3.1749,3.1767,3.1734,3.1753,3.1766,3.1737,3.1763,3.1762,3.1765,3.1799,3.1813,3.1799,3.1871,3.1845,3.185,3.1851,3.1871,3.188,3.1888,3.1784,3.1783,3.1783,0,0,3.1779,3.178,3.1806,3.1809,3.1813,3.1807,3.1813,3.1812,3.181,3.1837,3.1816,3.1831,3.1855,3.1858,3.1863,3.1923,3.1906,3.1928,3.1964,3.1985,3.1992,3.1999,3.202,3.2028,3.1932,3.1932,3.1932,0,3.181,3.1835,3.1821,3.1843,3.185,3.1825,3.1852,3.1856,3.1863,3.1869,3.1852,3.1883,3.1883,3.1918,3.1933,3.1938,3.1945,3.1927,3.1992,3.1999,3.2005,3.2025,3.2033,3.1935,3.1935,3.1934,3.1934,0,3.1874,3.1892,3.1912,3.1922,3.1931,3.1955,3.1945,3.1956,3.1945,3.1941,3.1969,3.1969,3.1981,3.1989,3.1978,3.2023,3.2014,3.1996,3.1966,3.2016,3.2035,3.2043,3.1939,3.1938,3.1937,3.1936,0,0,3.195,3.1953,3.1961,3.1966,3.197,3.1983,3.2007,3.202,3.203,3.2037,3.2057,3.2079,3.2062,3.2068,3.2058,3.2076,3.2125,3.2056,3.2056,3.2068,3.2175,3.2188,3.2198,3.2114,3.2115,3.2116,3.2175,0,3.2005,3.2045,3.2034,3.2075,3.2092,3.2071,3.2091,3.2096,3.2093,3.2108,3.2104,3.212,3.2097,3.2101,3.2118,3.2115,3.2146,3.2111,3.2132,3.2133,3.2131,3.2207,3.2221,3.2276,3.2182,3.2183,3.2184,0,3.2072,3.2083,3.2126,3.2129,3.2136,3.2154,3.2166,3.218,3.2186,3.2183,3.2191,3.2177,3.2201,3.2173,3.2206,3.2182,3.219,3.219,3.2192,3.2193,3.2161,3.221,3.2293,3.2301,3.2196,3.2195,3.2194,0,3.2125,3.215,3.2179,3.2184,3.2187,3.2201,3.2204,3.2208,3.2217,3.2228,3.2234,3.2247,3.2254,3.2265,3.2255,3.2235,3.229,3.226,3.2288,3.2288,3.2299,3.2299,3.2385,3.2306,3.2306,3.2305,3.2305,0,3.2186,3.2213,3.2203,3.222,3.225,3.2239,3.2269,3.2268,3.2273,3.2291,3.2273,3.229,3.2277,3.2293,3.2286,3.2315,3.2318,3.2316,3.2314,3.2317,3.2318,3.2322,3.2318,3.2308,3.2307,3.2307,3.2306,0,3.2248,3.2243,3.2273,3.2275,3.2277,3.2299,3.2301,3.2317,3.2314,3.2337,3.2342,3.2336,3.2354,3.2347,3.2365,3.2361,3.2398,3.2391,3.2396,3.2394,3.2422,3.2419,3.2513,3.2525,3.2439,3.244,3.244,0,3.2287,3.2308,3.2313,3.2324,3.2328,3.2346,3.2356,3.2345,3.2356,3.2366,3.2382,3.2399,3.2411,3.2442,3.2439,3.2454,3.2447,3.2479,3.2449,3.2452,3.2447,3.2446,3.2448,3.2485,3.2486,3.2486,3.2487,0,3.2358,3.2354,3.2369,3.2384,3.2397,3.2408,3.2417,3.2427,3.2417,3.2431,3.245,3.246,3.248,3.2497,3.2511,3.2513,3.2499,3.2497,3.2504,3.2507,3.251,3.2509,3.2412,3.2494,3.2494,3.2493,3.2493,3.2492,3.2409,3.2427,3.2434,3.2452,3.2459,3.2468,3.2485,3.2484,3.25,3.2516,3.251,3.2532,3.2539,3.2555,3.256,3.2577,3.2565,3.2575,3.2577,3.258,3.2584,3.2508,3.258,3.2579,3.2579,3.2579,3.2579,0,3.2479,3.2483,3.25,3.2514,3.2529,3.2515,3.2525,3.2538,3.2558,3.2566,3.258,3.2602,3.262,3.262,3.2636,3.265,3.2643,3.2654,3.2652,3.2653,3.2594,3.2586,3.2659,3.2659,3.2659,3.2659,3.2659,3.2659,3.2516,3.2546,3.2544,3.2578,3.2581,3.2604,3.2611,3.262,3.2626,3.2653,3.2667,3.2668,3.2673,3.2689,3.2705,3.2704,3.2711,3.2724,3.2721,3.2665,3.2657,3.265,3.2642,3.2726,3.2726,3.2779,3.278,3.278]}]]